Powrót do katalogu

COSMOS 839 DEB

AktywnyLEO
NORAD 10613·DEBRIS·🇷🇺 Russia

Wystrzelony Jul 8, 1976 z Plesetsk Cosmodrome

Loading…

Następne Przeloty (najbliższe 24 godziny)

TLE

ŚwieżeSource: Space-Track

Epoka: Sep 14, 2026, 09:17 UTC

1 10613U 76067AM  26257.38707673  .00000298  00000-0  77403-3 0  9993
2 10613  65.7987 237.9469 0692882 100.2941 267.6877 12.63155834300540

Śledź COSMOS 839 DEB w czasie rzeczywistym z AllMySat

Download on the App Store